Burns, OR

9:52 AM PDT on April 25, 2018 (GMT -0700)
Burns Municipal

Weather History for KBNO - February, 2014

Change the Weather History Date:

Saturday, February 8, 2014

  Actual Average Record
Temperature  
Mean Temperature 32 °F 27 °F  
Max Temperature 38 °F 37 °F 60 °F (1963)
Min Temperature 26 °F 17 °F -15 °F (1989)
Degree Days  
Heating Degree Days 33 38  
Month to date heating degree days 339 308  
Since 1 July heating degree days 4749 4821  
Cooling Degree Days 0 0  
Month to date cooling degree days 0 0  
Year to date cooling degree days 0 0  
Moisture  
Dew Point 32 °F    
Average Humidity 88    
Maximum Humidity 100    
Minimum Humidity 76    
Precipitation  
Precipitation 0.29 in 0.03 in 0.68 in (1960)
Month to date precipitation 0.87 0.28  
Year to date precipitation 1.37 1.47  
Sea Level Pressure  
Sea Level Pressure 29.84 in    
Wind  
Wind Speed 7 mph (ESE)    
Max Wind Speed 26 mph    
Max Gust Speed 32 mph    
Visibility 6 miles    
Events Rain , Snow    
T = Trace of Precipitation, MM = Missing Value Source: NWS Daily Summary

Daily Weather History Graph

Daily Weather History Graph

Search for Another Location

Airport or City:

Astronomy

Feb. 08, 2014 Rise Set
Actual Time 7:03 AM PST 5:16 PM PST
Civil Twilight 6:33 AM PST 5:46 PM PST
Nautical Twilight 5:59 AM PST 6:20 PM PST
Astronomical Twilight 5:26 AM PST 6:54 PM PST
Moon 12:11 PM PST (2/8) 2:23 AM PST (2/8)
Length of Visible Light 11h 12m
Length of Day
10h 13m
Waxing Gibbous, 69% of the Moon is Illuminated
Feb 8
Waxing Gibbous
Feb 14
Full
Feb 22
Last Quarter
Mar 1
New
Mar 8
First Quarter

Hourly Weather History & Observations

Time (PST) Temp. Windchill Dew Point Humidity Pressure Visibility Wind Dir Wind Speed Gust Speed Precip Events Conditions
12:53 AM 37.0 °F 26.7 °F 30.9 °F 79% 29.69 in 10.0 mi SSW 19.6 mph 26.5 mph N/A   Overcast
1:53 AM 37.9 °F 26.8 °F 32.0 °F 79% 29.73 in 10.0 mi SW 24.2 mph 31.1 mph N/A   Overcast
2:53 AM 37.0 °F 27.0 °F 33.1 °F 86% 29.77 in 9.0 mi SW 18.4 mph 26.5 mph 0.01 in Rain Light Rain
3:38 AM 36.0 °F 27.5 °F 34.0 °F 93% 29.76 in 10.0 mi SW 12.7 mph - 0.01 in Rain Light Rain
3:53 AM 36.0 °F 28.5 °F 34.0 °F 93% 29.82 in 10.0 mi SW 10.4 mph - 0.02 in Rain Light Rain
4:53 AM 35.1 °F 27.9 °F 33.1 °F 92% 29.85 in 10.0 mi SW 9.2 mph - 0.02 in Rain Light Rain
5:09 AM 35.1 °F 27.9 °F 33.1 °F 92% 29.80 in 10.0 mi SSW 9.2 mph - 0.00 in Rain Light Rain
5:37 AM 35.1 °F 28.6 °F 33.1 °F 92% 29.80 in 10.0 mi SSW 8.1 mph - 0.01 in Rain Light Rain
5:53 AM 35.1 °F 29.3 °F 33.1 °F 92% 29.87 in 10.0 mi SSW 6.9 mph - 0.01 in   Overcast
6:33 AM 35.1 °F 29.3 °F 33.1 °F 92% 29.81 in 10.0 mi WSW 6.9 mph - 0.00 in   Mostly Cloudy
6:53 AM 36.0 °F 29.6 °F 34.0 °F 93% 29.89 in 10.0 mi SSW 8.1 mph - 0.00 in   Mostly Cloudy
7:33 AM 36.0 °F 28.5 °F 34.0 °F 93% 29.85 in 10.0 mi South 10.4 mph - 0.00 in   Overcast
7:53 AM 35.1 °F 26.9 °F 34.0 °F 96% 29.91 in 10.0 mi South 11.5 mph - 0.01 in Rain Light Rain
8:06 AM 36.0 °F 27.5 °F 34.0 °F 93% 29.85 in 10.0 mi South 12.7 mph - 0.00 in   Overcast
8:33 AM 36.0 °F 27.1 °F 34.0 °F 93% 29.86 in 10.0 mi SSW 13.8 mph - 0.00 in   Overcast
8:53 AM 36.0 °F 29.0 °F 34.0 °F 93% 29.93 in 10.0 mi South 9.2 mph - 0.01 in   Overcast
9:53 AM 37.0 °F 33.3 °F 35.1 °F 93% 29.93 in 10.0 mi South 4.6 mph - 0.00 in   Overcast
10:53 AM 37.0 °F 33.3 °F 35.1 °F 93% 29.93 in 9.0 mi South 4.6 mph - N/A   Overcast
11:53 AM 37.0 °F 33.3 °F 35.1 °F 93% 29.91 in 10.0 mi SSE 4.6 mph - N/A   Overcast
12:29 PM 37.0 °F 31.6 °F 35.1 °F 93% 29.86 in 5.0 mi South 6.9 mph - 0.00 in Rain Light Rain
12:53 PM 37.0 °F 34.5 °F 35.1 °F 93% 29.90 in 3.0 mi West 3.5 mph - 0.03 in Rain Rain
1:53 PM 34.0 °F 31.0 °F 33.1 °F 96% 29.89 in 2.5 mi SSW 3.5 mph - 0.09 in Snow Light Snow
2:03 PM 34.0 °F - 33.1 °F 96% 29.85 in 1.5 mi Calm Calm - 0.01 in Snow Light Snow
2:21 PM 33.1 °F 30.0 °F 33.1 °F 100% 29.84 in 1.0 mi SE 3.5 mph - 0.04 in Snow Light Snow
2:32 PM 33.1 °F 28.7 °F 32.0 °F 96% 29.84 in 0.8 mi ESE 4.6 mph - 0.06 in Snow Light Snow
2:48 PM 33.8 °F 29.6 °F 33.8 °F 100% 29.84 in 1.2 mi East 4.6 mph - 0.08 in Snow Light Snow
2:53 PM 33.1 °F 30.0 °F 33.1 °F 100% 29.88 in 2.0 mi East 3.5 mph - 0.08 in Snow Light Snow
3:06 PM 33.1 °F 28.7 °F 33.1 °F 100% 29.83 in 4.0 mi NE 4.6 mph - 0.01 in Snow Light Snow
3:22 PM 33.1 °F 26.9 °F 32.0 °F 96% 29.83 in 7.0 mi NE 6.9 mph - 0.01 in   Overcast
3:33 PM 33.1 °F 28.7 °F 32.0 °F 96% 29.83 in 6.0 mi ENE 4.6 mph - 0.01 in   Overcast
3:53 PM 33.1 °F 26.9 °F 33.1 °F 100% 29.86 in 8.0 mi NE 6.9 mph - 0.01 in   Overcast
4:02 PM 33.1 °F 26.1 °F 33.1 °F 100% 29.81 in 8.0 mi NE 8.1 mph - N/A   Overcast
4:12 PM 33.1 °F 26.1 °F 33.1 °F 100% 29.81 in 1.5 mi NE 8.1 mph - N/A   Overcast
4:20 PM 33.1 °F 26.1 °F 32.0 °F 96% 29.81 in 0.8 mi ENE 8.1 mph - N/A   Overcast
4:30 PM 33.1 °F 27.7 °F 33.1 °F 100% 29.81 in 1.0 mi ENE 5.8 mph - N/A   Overcast
4:53 PM 33.1 °F 26.9 °F 33.1 °F 100% 29.84 in 0.8 mi NE 6.9 mph - N/A   Mist
5:10 PM 33.1 °F 27.7 °F 33.1 °F 100% 29.79 in 1.0 mi North 5.8 mph - N/A   Overcast
5:18 PM 33.1 °F 30.0 °F 32.0 °F 96% 29.79 in 0.8 mi NNE 3.5 mph - N/A   Overcast
5:40 PM 33.1 °F 27.7 °F 32.0 °F 96% 29.78 in 1.0 mi NNE 5.8 mph - N/A   Overcast
5:46 PM 33.1 °F 28.7 °F 32.0 °F 96% 29.79 in 1.8 mi NNE 4.6 mph - N/A   Overcast
5:48 PM 33.8 °F 30.8 °F 32.0 °F 93% 29.79 in 3.0 mi NNE 3.5 mph - N/A   Overcast
5:53 PM 33.1 °F 30.0 °F 32.0 °F 96% 29.83 in 9.0 mi North 3.5 mph - N/A   Overcast
6:00 PM 33.1 °F 28.7 °F 32.0 °F 96% 29.79 in 10.0 mi North 4.6 mph - N/A   Overcast
6:38 PM 33.1 °F 28.7 °F 32.0 °F 96% 29.80 in 10.0 mi West 4.6 mph - N/A   Overcast
6:53 PM 33.1 °F 30.0 °F 32.0 °F 96% 29.84 in 10.0 mi NNW 3.5 mph - N/A   Overcast
7:11 PM 33.1 °F - 33.1 °F 100% 29.79 in 10.0 mi Calm Calm - N/A   Overcast
7:53 PM 33.1 °F - 32.0 °F 96% 29.84 in 10.0 mi Calm Calm - N/A   Overcast
8:36 PM 30.9 °F - 30.0 °F 96% 29.81 in 1.8 mi Calm Calm - N/A   Scattered Clouds
8:40 PM 30.9 °F - 30.0 °F 96% 29.81 in 0.8 mi Calm Calm - N/A   Partly Cloudy
8:53 PM 30.0 °F - 30.0 °F 100% 29.86 in 1.0 mi Calm Calm - N/A   Partly Cloudy
9:14 PM 28.9 °F 25.2 °F 28.0 °F 96% 29.80 in 2.0 mi ENE 3.5 mph - N/A   Clear
9:23 PM 30.0 °F 25.2 °F 28.9 °F 96% 29.80 in 10.0 mi East 4.6 mph - N/A   Clear
9:53 PM 28.0 °F 22.8 °F 27.0 °F 96% 29.87 in 10.0 mi East 4.6 mph - N/A   Clear
10:07 PM 28.9 °F 21.1 °F 27.0 °F 92% 29.82 in 8.0 mi North 8.1 mph - N/A   Partly Cloudy
10:53 PM 28.0 °F 22.8 °F 27.0 °F 96% 29.89 in 9.0 mi NE 4.6 mph - N/A   Clear
11:14 PM 28.0 °F 22.8 °F 28.0 °F 100% 29.84 in 2.5 mi NNE 4.6 mph - N/A   Partly Cloudy
11:21 PM 28.0 °F 20.8 °F 27.0 °F 96% 29.84 in 1.2 mi North 6.9 mph - N/A   Partly Cloudy
11:32 PM 30.0 °F 25.2 °F 28.9 °F 96% 29.85 in 2.5 mi NNE 4.6 mph - N/A   Partly Cloudy
11:39 PM 30.9 °F 27.5 °F 30.0 °F 96% 29.86 in 10.0 mi Variable 3.5 mph - N/A   Partly Cloudy
11:53 PM 33.1 °F 28.7 °F 28.9 °F 85% 29.89 in 10.0 mi SSW 4.6 mph - N/A   Clear